Starlink 32391

operational
NORAD ID: 61855 Int'l Des: 2024-202 Owner: SPXS Country: US Constellation: starlink
LEOCIRCULAR

About Starlink 32391

Description loading...

Live Position

Loading 3D Globe...

Upcoming Passes

Altitude History

Altitude vs Time

uPlot chart will show altitude changes over time

Two-Line Element Set

1 61855U 24202L 25349.30189963 .00005413 00000-0 20615-3 0 9997
2 61855 43.0024 354.3933 0001174 264.5278 95.5440 15.27571601 62423
Epoch: Dec 15, 2025 • Age: 36 hours

Current Status

Altitude 492.5 km
Velocity 7.62 km/s
Sub-Earth Point -35.26°S, 152.76°W
Launch Date Nov 7, 2024
Age 1.1 years
Type internet

Technical Details

Classification Payload
Mass 730.00 kg
Dry Mass 700.00 kg
Total Mass 730.00 kg
Length 0.30 m
Diameter 4.10 m
Span 29.00 m
Shape Box + pan
Manufacturer SPXS
Bus Type Starlink V2M
Phase Status In Orbit
Owner/State SPXS/US

Large Constellations

Loading constellations...